Manhattan, KS

1:29 AM CDT on April 24, 2018 (GMT -0500)
Manhattan Regional

Weather History for KMHK - December, 2011

Change the Weather History Date:

Tuesday, December 27, 2011

  Actual Average Record
Temperature  
Mean Temperature 36 °F 28 °F  
Max Temperature 45 °F 40 °F 62 °F (2003)
Min Temperature 26 °F 17 °F -4 °F (2017)
Degree Days  
Heating Degree Days 30 37  
Month to date heating degree days 919  
Since 1 July heating degree days 1994  
Cooling Degree Days 0 0  
Month to date cooling degree days 0  
Year to date cooling degree days 1362  
Moisture  
Dew Point 25 °F    
Average Humidity 63    
Maximum Humidity 89    
Minimum Humidity 46    
Precipitation  
Precipitation 0.00 in 0.02 in 0.06 in (2008)
Month to date precipitation 0.92  
Year to date precipitation 32.45  
Sea Level Pressure  
Sea Level Pressure 30.10 in    
Wind  
Wind Speed 6 mph (West)    
Max Wind Speed 12 mph    
Max Gust Speed 17 mph    
Visibility 10 miles    
Events      
T = Trace of Precipitation, MM = Missing Value Source: NWS Daily Summary

Daily Weather History Graph

Daily Weather History Graph

Search for Another Location

Airport or City:

Astronomy

Dec. 27, 2011 Rise Set
Actual Time 7:44 AM CST 5:10 PM CST
Civil Twilight 7:14 AM CST 5:40 PM CST
Nautical Twilight 6:41 AM CST 6:14 PM CST
Astronomical Twilight 6:08 AM CST 6:46 PM CST
Moon 9:42 AM CST (12/27) 8:44 PM CST (12/27)
Length of Visible Light 10h 26m
Length of Day
9h 25m
Waxing Crescent, 11% of the Moon is Illuminated
Dec 27
Waxing Crescent
Jan 1
First Quarter
Jan 9
Full
Jan 16
Last Quarter
Jan 23
New

Hourly Weather History & Observations

Time (CST) Temp. Windchill Dew Point Humidity Pressure Visibility Wind Dir Wind Speed Gust Speed Precip Events Conditions
12:52 AM 39.2 °F 33.0 °F 24.8 °F 56% 29.97 in 10.0 mi NNW 9.2 mph - N/A   Clear
1:52 AM 39.0 °F 35.7 °F 25.0 °F 57% 30.00 in 10.0 mi Variable 4.6 mph - N/A   Clear
2:52 AM 37.9 °F 34.4 °F 25.0 °F 60% 30.03 in 10.0 mi Variable 4.6 mph - N/A   Clear
3:52 AM 37.0 °F 33.3 °F 24.1 °F 59% 30.05 in 10.0 mi Variable 4.6 mph - N/A   Clear
4:52 AM 37.0 °F 32.4 °F 24.1 °F 59% 30.06 in 10.0 mi Variable 5.8 mph - N/A   Clear
5:52 AM 35.6 °F - 23.0 °F 60% 30.07 in 10.0 mi Calm Calm - N/A   Clear
6:52 AM 32.0 °F 28.7 °F 23.0 °F 69% 30.11 in 10.0 mi West 3.5 mph - N/A   Clear
7:52 AM 30.9 °F 26.2 °F 21.9 °F 69% 30.12 in 10.0 mi West 4.6 mph - N/A   Clear
8:52 AM 35.1 °F 30.1 °F 23.0 °F 61% 30.14 in 10.0 mi West 5.8 mph - N/A   Clear
9:52 AM 39.0 °F 35.7 °F 23.0 °F 53% 30.16 in 10.0 mi NNW 4.6 mph - N/A   Clear
10:52 AM 41.0 °F 36.4 °F 24.1 °F 51% 30.16 in 10.0 mi Variable 6.9 mph - N/A   Clear
11:52 AM 43.0 °F 38.8 °F 25.0 °F 49% 30.14 in 10.0 mi NW 6.9 mph - N/A   Clear
12:52 PM 43.0 °F 37.2 °F 26.1 °F 51% 30.12 in 10.0 mi WNW 10.4 mph 16.1 mph N/A   Clear
1:52 PM 44.1 °F 38.6 °F 26.1 °F 49% 30.11 in 10.0 mi WNW 10.4 mph - N/A   Clear
2:52 PM 45.0 °F 39.3 °F 25.0 °F 46% 30.12 in 10.0 mi West 11.5 mph 17.3 mph N/A   Clear
3:52 PM 44.1 °F 40.1 °F 26.1 °F 49% 30.12 in 10.0 mi WSW 6.9 mph - N/A   Clear
4:52 PM 39.0 °F 34.8 °F 27.0 °F 62% 30.13 in 10.0 mi WSW 5.8 mph - N/A   Clear
5:52 PM 34.0 °F 28.8 °F 25.0 °F 70% 30.13 in 10.0 mi SW 5.8 mph - N/A   Clear
6:52 PM 36.0 °F 32.1 °F 26.1 °F 67% 30.13 in 10.0 mi WSW 4.6 mph - N/A   Clear
7:52 PM 33.1 °F 28.7 °F 26.1 °F 75% 30.13 in 10.0 mi WSW 4.6 mph - N/A   Clear
8:52 PM 30.0 °F 25.2 °F 25.0 °F 82% 30.14 in 10.0 mi WSW 4.6 mph - N/A   Clear
9:52 PM 27.0 °F - 24.1 °F 89% 30.13 in 10.0 mi Calm Calm - N/A   Clear
10:52 PM 26.1 °F - 23.0 °F 88% 30.11 in 10.0 mi Calm Calm - N/A   Clear
11:52 PM 26.1 °F - 23.0 °F 88% 30.13 in 10.0 mi Calm Calm - N/A   Clear